Regional Weather Roundup
Issued by NWS

Home | Current Version | Previous Version | Graphics & Text | Print | Product List | Glossary On
Versions: 1 2 3 4 5 6 7 8 9 10 11 12 13 14 15 16 17 18 19 20 21 22 23 24 25 26 27 28 29 30 31 32 33 34 35 36 37 38 39 40 41 42 43 44 45 46 47 48 49 50
000
ASUS43 KIND 200859
RWRIN

WEATHER ROUNDUP FOR INDIANA
NATIONAL WEATHER SERVICE INDIANAPOLIS IN
500 AM EDT WED AUG 20 2014

NOTE: "FAIR" INDICATES FEW OR NO CLOUDS BELOW 12,000 FEET WITH NO
SIGNIFICANT WEATHER AND/OR OBSTRUCTIONS TO VISIBILITY.

* - STATION DOES NOT REPORT WEATHER SUCH AS PRECIPITATION OR FOG.

+ - STATION NOT QUALITY CONTROLLED BY THE NATIONAL WEATHER SERVICE.
    USE DATA WITH CAUTION...ESPECIALLY DEWPOINT AND RELATIVE
    HUMIDITY OBSERVATIONS.

INZ001>003-010>013-019-020-201000-
NORTHWEST INDIANA

CITY           SKY/WX    TMP DP  RH WIND       PRES   REMARKS
KNOX *+        CLEAR     66  64  91 W3        29.81R
MONTICELLO +   CLEAR     64  64  99 SW3       29.82S
VALPARAISO     CLEAR     65  64  97 SW3       29.82R

$$

LMZ046-743>745-201000-
SOUTHERN LAKE MICHIGAN

STATION/POSITION TIME  TEMP WIND        PRES
                       AIR  DIR/SP/G
                 (UTC) (F)  (DEG/KT/KT) (MB)
BURNS HARBOR     0800   72  230/  7/  8   N/A
MICHIGAN CITY    0800   72  210/ 11/ 14   N/A

$$

INZ004-005-014>016-021>024-201000-
NORTH CENTRAL INDIANA

CITY           SKY/WX    TMP DP  RH WIND       PRES   REMARKS
GOSHEN         CLEAR     66  63  90 SW5       29.81R
SOUTH BEND     CLEAR     65  62  90 SW3       29.81
WARSAW +       MOCLDY    64  64 100 CALM      29.82S

$$

INZ006>009-017-018-025>027-201000-
NORTHEAST INDIANA

CITY           SKY/WX    TMP DP  RH WIND       PRES   REMARKS
ANGOLA *+      PTCLDY    66  57  72 SW5       29.81R
FORT WAYNE     MOCLDY    66  64  93 SW8       29.84R

$$

INZ028-029-035-036-043>045-051>053-201000-
WEST CENTRAL INDIANA

CITY           SKY/WX    TMP DP  RH WIND       PRES   REMARKS
GREENCASTLE +  FOG       63  63 100 CALM      29.86S VSB 3/4
LAFAYETTE      FOG       61  61 100 CALM      29.84R VSB 1
TERRE HAUTE    CLOUDY    65  63  93 CALM      29.85S FOG

$$

INZ030>032-037>040-046>048-054>057-064-065-201000-
CENTRAL INDIANA

CITY           SKY/WX    TMP DP  RH WIND       PRES   REMARKS
INDIANAPOLIS   CLEAR     65  63  93 SW7       29.85R
-EAGLE CREEK   CLEAR     65  63  93 CALM      29.85R
KOKOMO *+      CLEAR     64  63  94 SW8       29.84S
MT COMFORT *+  CLEAR     63 N/A N/A S3        29.86R
SHELBYVILLE    CLEAR     65  32  29 S5        29.86R
ZIONSVILLE +   CLEAR     65  61  89 W5        29.86S

$$

INZ033-034-041-042-049-050-058-059-201000-
EAST CENTRAL INDIANA

CITY           SKY/WX    TMP DP  RH WIND       PRES   REMARKS
MUNCIE         PTCLDY    67  63  87 SW8       29.85R

$$

INZ060-061-067>069-081>083-085>088-201000-
SOUTHWEST INDIANA

CITY           SKY/WX    TMP DP  RH WIND       PRES   REMARKS
EVANSVILLE     CLEAR     72  69  90 CALM      29.87R

$$

INZ062-063-066-070>080-084-089>092-201000-
SOUTH CENTRAL AND SOUTHEAST INDIANA

CITY           SKY/WX    TMP DP  RH WIND       PRES   REMARKS
BLOOMINGTON    MOCLDY    69  66  90 CALM      29.87R
SEYMOUR +      MOCLDY    63  55  77 CALM      29.87

$$




USA.gov is the U.S. government's official web portal to all federal, state and local government web resources and services.